Weather History for KBIS - May, 2012

Change the Weather History Date:

Saturday, May 19, 2012

  Actual Average Record
Temperature  
Mean Temperature 54 °F 57 °F  
Max Temperature 64 °F 69 °F 96 °F (1948)
Min Temperature 43 °F 44 °F 27 °F (2002)
Degree Days  
Heating Degree Days 11 9  
Month to date heating degree days 152 223  
Since 1 July heating degree days 6849 8378  
Cooling Degree Days 0 1  
Month to date cooling degree days 2 1  
Year to date cooling degree days 2 2  
Growing Degree Days 6 (Base 50)    
Moisture  
Dew Point 49 °F    
Average Humidity 71    
Maximum Humidity 93    
Minimum Humidity 48    
Precipitation  
Precipitation 0.44 in 0.08 in 1.51 in (2013)
Month to date precipitation 1.58 1.37  
Year to date precipitation 4.60 4.44  
Snow  
Snow 0.00 in 0.00 in 0.10 in (1931)
Month to date snowfall 0.0 0.4  
Since 1 July snowfall 13.6 51.2  
Snow Depth 0.00 in    
Sea Level Pressure  
Sea Level Pressure 29.90 in    
Wind  
Wind Speed 11 mph (NNW)    
Max Wind Speed 23 mph    
Max Gust Speed 29 mph    
Visibility 8 miles    
Events Rain    
T = Trace of Precipitation, MM = Missing Value Source: NWS Daily Summary

Daily Weather History Graph

Daily Weather History Graph

Search for Another Location

Airport or City:

Trip Planner

Search our weather history database for the weather conditions in past years. The results will help you decide how hot, cold, wet, or windy it might be!

Date:

Astronomy

May. 19, 2012 Rise Set
Actual Time 6:03 AM CDT 9:16 PM CDT
Civil Twilight 5:26 AM CDT 9:53 PM CDT
Nautical Twilight 4:39 AM CDT 10:41 PM CDT
Astronomical Twilight 3:40 AM CDT 11:40 PM CDT
Moon 5:10 AM CDT (5/19) 8:21 PM CDT (5/19)
Length of Visible Light 16h 26m
Length of Day
15h 13m
Waning Crescent, 1% of the Moon is Illuminated
May 19
Waning Crescent
May 20
New
May 28
First Quarter
Jun 4
Full
Jun 11
Last Quarter

Hourly Weather History & Observations

Time (CDT) Temp. Dew Point Humidity Pressure Visibility Wind Dir Wind Speed Gust Speed Precip Events Conditions
12:52 AM 55.9 °F 51.1 °F 84% 29.72 in 10.0 mi North 11.5 mph - 0.00 in Rain Light Rain
1:52 AM 55.0 °F 51.1 °F 86% 29.73 in 7.0 mi NNW 6.9 mph - 0.02 in Rain Rain
2:52 AM 54.0 °F 51.1 °F 90% 29.77 in 5.0 mi WNW 5.8 mph - 0.13 in Rain Rain
3:39 AM 53.6 °F 51.8 °F 94% 29.76 in 5.0 mi North 11.5 mph - 0.13 in Rain Rain
3:52 AM 53.1 °F 51.1 °F 93% 29.75 in 6.0 mi North 13.8 mph 20.7 mph 0.14 in Rain Light Rain
4:20 AM 51.8 °F 50.0 °F 94% 29.76 in 9.0 mi NNW 16.1 mph 23.0 mph 0.01 in Rain Light Rain
4:52 AM 52.0 °F 48.9 °F 89% 29.76 in 6.0 mi NNW 17.3 mph 25.3 mph 0.05 in Rain Rain
5:52 AM 51.1 °F 48.0 °F 89% 29.77 in 9.0 mi NNW 15.0 mph 20.7 mph 0.04 in Rain Light Rain
6:42 AM 51.8 °F 48.2 °F 88% 29.80 in 10.0 mi NNW 8.1 mph 16.1 mph 0.02 in   Overcast
6:52 AM 52.0 °F 50.0 °F 93% 29.81 in 10.0 mi NNW 10.4 mph - 0.02 in   Overcast
7:14 AM 51.8 °F 50.0 °F 94% 29.82 in 9.0 mi NNW 13.8 mph 19.6 mph 0.00 in Rain Light Rain
7:45 AM 53.6 °F 50.0 °F 88% 29.83 in 9.0 mi NNW 10.4 mph - 0.01 in Rain Light Rain
7:52 AM 53.1 °F 50.0 °F 89% 29.83 in 10.0 mi NNW 10.4 mph - 0.01 in Rain Light Rain
8:29 AM 53.6 °F 50.0 °F 88% 29.85 in 9.0 mi NNW 10.4 mph - 0.01 in Rain Light Rain
8:52 AM 54.0 °F 51.1 °F 90% 29.87 in 10.0 mi NNW 8.1 mph - 0.01 in Rain Light Rain
9:06 AM 53.6 °F 51.8 °F 94% 29.87 in 10.0 mi NW 6.9 mph - 0.00 in Rain Light Rain
9:39 AM 53.6 °F 51.8 °F 94% 29.88 in 7.0 mi NW 8.1 mph - 0.01 in Rain Light Rain
9:52 AM 55.0 °F 52.0 °F 89% 29.89 in 5.0 mi WNW 8.1 mph - 0.02 in Rain Light Rain
10:00 AM 55.4 °F 53.6 °F 94% 29.89 in 6.0 mi NW 9.2 mph - 0.00 in Rain Light Rain
10:09 AM 55.4 °F 53.6 °F 94% 29.89 in 7.0 mi NW 10.4 mph 17.3 mph 0.00 in Rain Light Rain
10:23 AM 55.4 °F 51.8 °F 88% 29.90 in 7.0 mi NW 12.7 mph 19.6 mph 0.00 in Rain Light Rain
10:52 AM 54.0 °F 51.1 °F 90% 29.92 in 5.0 mi NW 16.1 mph 23.0 mph 0.00 in Rain Light Rain
11:48 AM 55.4 °F 51.8 °F 88% 29.93 in 4.0 mi NW 12.7 mph - 0.00 in   Overcast
11:52 AM 55.9 °F 52.0 °F 87% 29.94 in 4.0 mi NW 15.0 mph - 0.00 in   Overcast
12:02 PM 55.4 °F 51.8 °F 88% 29.93 in 4.0 mi NW 13.8 mph - N/A   Overcast
12:16 PM 57.2 °F 51.8 °F 82% 29.94 in 7.0 mi NNW 13.8 mph 23.0 mph N/A   Overcast
12:52 PM 57.9 °F 50.0 °F 75% 29.95 in 10.0 mi NNW 17.3 mph 25.3 mph N/A   Mostly Cloudy
1:05 PM 60.8 °F 50.0 °F 68% 29.94 in 10.0 mi NNW 20.7 mph 25.3 mph N/A   Mostly Cloudy
1:16 PM 60.8 °F 48.2 °F 63% 29.94 in 10.0 mi NNW 20.7 mph 26.5 mph N/A   Mostly Cloudy
1:52 PM 61.0 °F 48.0 °F 62% 29.97 in 10.0 mi NNW 17.3 mph 28.8 mph N/A   Mostly Cloudy
2:52 PM 62.1 °F 48.0 °F 60% 30.00 in 10.0 mi NNW 13.8 mph 20.7 mph N/A   Overcast
3:52 PM 63.0 °F 46.9 °F 56% 30.01 in 10.0 mi NW 12.7 mph 21.9 mph N/A   Mostly Cloudy
4:52 PM 61.0 °F 45.0 °F 56% 30.02 in 10.0 mi NNW 15.0 mph - N/A   Mostly Cloudy
5:52 PM 61.0 °F 42.1 °F 50% 30.02 in 10.0 mi NNW 15.0 mph 20.7 mph N/A   Clear
6:52 PM 63.0 °F 43.0 °F 48% 30.03 in 10.0 mi North 9.2 mph - N/A   Scattered Clouds
7:52 PM 61.0 °F 42.1 °F 50% 30.05 in 10.0 mi North 10.4 mph - N/A   Clear
8:52 PM 57.9 °F 42.1 °F 56% 30.06 in 10.0 mi NNW 8.1 mph - N/A   Clear
9:52 PM 55.0 °F 42.1 °F 62% 30.06 in 10.0 mi North 3.5 mph - N/A   Clear
10:52 PM 48.9 °F 42.1 °F 77% 30.09 in 10.0 mi Calm Calm - N/A   Clear
11:52 PM 48.0 °F 42.1 °F 80% 30.12 in 10.0 mi Calm Calm - N/A   Clear